TAM8190 SBGR-KMIA

Flight info

Callsign TAM8190
Flight time N/A
Altitude 38000
Route GERTU UL304 OPNUS UM417 KONKI UL304 BRUTI UM417 LOBEX/N0487F400 UM417 ISUNU UM409 VUMPI UL795 ALTIB UM779 ZEUSS VIICE2
Aircraft B789/H-SDE1E2E3FGHIJ2J3J4J5M1RWXY/LB1D1

Departure

Time N/A
Airport São Paulo/Guarulhos–Governor André Franco Montoro International Airport (SBGR)

Arrival

Time 2026-05-04 00:01
Airport Miami International Airport (KMIA)
Time Latitude Longitude Altitude Speed Heading
2026-05-03 23:39 25.48071 -79.35561 32760 ft 400 kts 264°
2026-05-03 23:39 25.47859 -79.38612 31974 ft 398 kts 266°
2026-05-03 23:39 25.47736 -79.41631 31164 ft 390 kts 267°
2026-05-03 23:39 25.47673 -79.44562 30376 ft 382 kts 268°
2026-05-03 23:40 25.47646 -79.47463 29583 ft 375 kts 269°
2026-05-03 23:40 25.47643 -79.50342 28790 ft 371 kts 269°
2026-05-03 23:40 25.47658 -79.53171 28007 ft 369 kts 270°
2026-05-03 23:40 25.47680 -79.56031 26877 ft 380 kts 270°
2026-05-03 23:41 25.47711 -79.58933 25723 ft 384 kts 270°
2026-05-03 23:41 25.47748 -79.61862 24546 ft 384 kts 270°
2026-05-03 23:41 25.47789 -79.64794 23355 ft 381 kts 271°
2026-05-03 23:41 25.47832 -79.67712 22175 ft 378 kts 270°
2026-05-03 23:42 25.47876 -79.70597 20998 ft 375 kts 270°
2026-05-03 23:42 25.47920 -79.73447 19827 ft 372 kts 271°
2026-05-03 23:42 25.47964 -79.76279 18654 ft 369 kts 271°
2026-05-03 23:42 25.48008 -79.79108 17473 ft 367 kts 271°
2026-05-03 23:43 25.48051 -79.81875 16310 ft 364 kts 271°
2026-05-03 23:43 25.48119 -79.84664 15122 ft 362 kts 275°
2026-05-03 23:43 25.48859 -79.87276 13943 ft 359 kts 299°
2026-05-03 23:43 25.50112 -79.89544 13485 ft 338 kts 300°
2026-05-03 23:44 25.51317 -79.91676 12937 ft 323 kts 303°
2026-05-03 23:44 25.52549 -79.93703 12389 ft 310 kts 303°
2026-05-03 23:44 25.53744 -79.95621 11849 ft 300 kts 304°
2026-05-03 23:44 25.54926 -79.97494 11312 ft 294 kts 304°
2026-05-03 23:45 25.56089 -79.99326 11039 ft 290 kts 304°
2026-05-03 23:45 25.57256 -80.01161 11022 ft 292 kts 304°
2026-05-03 23:45 25.58433 -80.02994 11015 ft 293 kts 306°
2026-05-03 23:45 25.59659 -80.04790 11021 ft 293 kts 308°
2026-05-03 23:46 25.60916 -80.06587 11017 ft 293 kts 307°
2026-05-03 23:46 25.62157 -80.08372 10818 ft 295 kts 307°
2026-05-03 23:46 25.63411 -80.10177 10461 ft 292 kts 307°
2026-05-03 23:46 25.64632 -80.11937 10048 ft 290 kts 307°
2026-05-03 23:47 25.65864 -80.13718 9590 ft 288 kts 307°
2026-05-03 23:47 25.67062 -80.15453 9195 ft 284 kts 307°
2026-05-03 23:47 25.68248 -80.17175 8813 ft 279 kts 307°
2026-05-03 23:47 25.69403 -80.18874 8513 ft 270 kts 303°
2026-05-03 23:48 25.69755 -80.20601 9987 ft 213 kts 267°
2026-05-03 23:48 25.69751 -80.22221 10661 ft 216 kts 270°
2026-05-03 23:48 25.69755 -80.23839 10459 ft 214 kts 269°
2026-05-03 23:48 25.69721 -80.25581 9422 ft 244 kts 268°
2026-05-03 23:49 25.69647 -80.27406 9255 ft 224 kts 265°
2026-05-03 23:49 25.69502 -80.29089 8764 ft 222 kts 264°
2026-05-03 23:49 25.69333 -80.30832 7864 ft 236 kts 264°
2026-05-03 23:49 25.69134 -80.32626 7279 ft 233 kts 263°
2026-05-03 23:50 25.68948 -80.34422 7714 ft 224 kts 264°
2026-05-03 23:50 25.68843 -80.35448 8098 ft 188 kts 264°
2026-05-03 23:50 25.68639 -80.37482 6804 ft 225 kts 264°
2026-05-03 23:50 25.68549 -80.39265 5928 ft 234 kts 275°
2026-05-03 23:51 25.68753 -80.41039 5281 ft 232 kts 275°
2026-05-03 23:51 25.68689 -80.42816 4656 ft 238 kts 263°
2026-05-03 23:51 25.68436 -80.44749 4195 ft 261 kts 261°
2026-05-03 23:51 25.68149 -80.46750 3796 ft 260 kts 261°
2026-05-03 23:52 25.67845 -80.48730 3486 ft 261 kts 260°
2026-05-03 23:52 25.67524 -80.50703 3367 ft 259 kts 261°
2026-05-03 23:52 25.67238 -80.52657 3730 ft 260 kts 262°
2026-05-03 23:52 25.67024 -80.54672 4036 ft 259 kts 264°
2026-05-03 23:53 25.66897 -80.56538 4248 ft 230 kts 272°
2026-05-03 23:53 25.67232 -80.58185 4086 ft 217 kts 312°
2026-05-03 23:53 25.68491 -80.58885 3804 ft 200 kts 350°
2026-05-03 23:53 25.69797 -80.59003 4045 ft 176 kts 355°
2026-05-03 23:54 25.70942 -80.59062 4454 ft 170 kts 354°
2026-05-03 23:54 25.72099 -80.59190 4192 ft 164 kts 352°
2026-05-03 23:54 25.73222 -80.59311 3819 ft 160 kts 354°
2026-05-03 23:54 25.74258 -80.59180 3643 ft 144 kts 22°
2026-05-03 23:55 25.75022 -80.58425 3386 ft 154 kts 52°
2026-05-03 23:55 25.75663 -80.57425 3183 ft 162 kts 53°
2026-05-03 23:55 25.76330 -80.56383 2963 ft 170 kts 53°
2026-05-03 23:55 25.77041 -80.55289 2734 ft 176 kts 52°
2026-05-03 23:56 25.77623 -80.54140 2667 ft 176 kts 72°
2026-05-03 23:56 25.77749 -80.52787 2761 ft 177 kts 84°
2026-05-03 23:56 25.77817 -80.51411 2738 ft 176 kts 84°
2026-05-03 23:56 25.77878 -80.50054 2744 ft 176 kts 84°
2026-05-03 23:57 25.77939 -80.48679 2743 ft 176 kts 85°
2026-05-03 23:57 25.77998 -80.47316 2743 ft 176 kts 85°
2026-05-03 23:57 25.78056 -80.45946 2743 ft 176 kts 85°
2026-05-03 23:57 25.78113 -80.44587 2743 ft 176 kts 85°
2026-05-03 23:58 25.78169 -80.43233 2664 ft 177 kts 85°
2026-05-03 23:58 25.78221 -80.41878 2244 ft 173 kts 85°
2026-05-03 23:58 25.78269 -80.40584 1843 ft 167 kts 86°
2026-05-03 23:58 25.78308 -80.39336 1532 ft 154 kts 86°
2026-05-03 23:59 25.78345 -80.38198 1292 ft 140 kts 86°
2026-05-03 23:59 25.78383 -80.37140 1104 ft 137 kts 85°
2026-05-03 23:59 25.78424 -80.36076 926 ft 137 kts 85°
2026-05-03 23:59 25.78466 -80.35017 745 ft 137 kts 85°
2026-05-04 00:00 25.78510 -80.33946 563 ft 138 kts 86°
2026-05-04 00:00 25.78550 -80.32849 359 ft 143 kts 85°
2026-05-04 00:00 25.78599 -80.31772 170 ft 141 kts 86°
2026-05-04 00:00 25.78646 -80.30679 25 ft 139 kts 86°
2026-05-04 00:01 25.78688 -80.29735 19 ft 102 kts 88°
2026-05-04 00:01 25.78712 -80.29070 19 ft 69 kts 88°
2026-05-04 00:01 25.78732 -80.28638 19 ft 44 kts 84°
2026-05-04 00:01 25.78815 -80.28433 19 ft 20 kts 50°
2026-05-04 00:02 25.78846 -80.28390 19 ft 0 kts 51°
2026-05-04 00:02 25.78847 -80.28388 19 ft 0 kts 51°
2026-05-04 00:03 25.78866 -80.28364 19 ft 20 kts 50°
2026-05-04 00:03 25.78894 -80.28175 19 ft 27 kts 87°
2026-05-04 00:03 25.78886 -80.27968 19 ft 22 kts 118°
2026-05-04 00:03 25.78860 -80.27866 19 ft 14 kts 83°
2026-05-04 00:04 25.78876 -80.27752 19 ft 15 kts 86°
2026-05-04 00:04 25.78886 -80.27631 19 ft 16 kts 80°
2026-05-04 00:04 25.78909 -80.27504 19 ft 17 kts 79°
2026-05-04 00:04 25.78925 -80.27380 19 ft 5 kts 84°
2026-05-04 00:05 25.78947 -80.27349 19 ft 6 kts 21°
2026-05-04 00:05 25.78993 -80.27341 19 ft 3 kts
2026-05-04 00:05 25.79004 -80.27341 19 ft 0 kts